Regional Weather Roundup
Issued by NWS

Home | Current Version | Previous Version | Text Only | Print | Product List | Glossary On
Versions: 1 2 3 4 5 6 7 8 9 10 11 12 13 14 15 16 17 18 19 20 21 22 23 24 25 26 27 28 29 30 31 32 33 34 35 36 37 38 39 40 41 42 43 44 45 46 47 48 49 50
000
ASUS45 KSLC 162110
RWRUT

UTAH REGIONAL WEATHER ROUNDUP
NATIONAL WEATHER SERVICE SALT LAKE CITY UT
200 PM MST MON JAN 16 2017

UTZ001>011-023>025-162200-

NORTHERN UTAH

CITY           SKY/WX    TMP DP  RH WIND       PRES   REMARKS
BRIGHAM CITY     N/A     23  15  70 N6        30.29F WCI  15
HILL AFB       SUNNY     25  12  59 E5        30.24F WCI  19
LOGAN          SUNNY     11   6  81 CALM      30.31F HAZE
OGDEN          SUNNY     26  16  65 NW7       30.25F WCI  18
SALT LAKE CITY MOSUNNY   29  19  66 NW5       30.26F WCI  24
TOOELE VALLEY  MOSUNNY   28  21  74 N6        30.27F WCI  22
WENDOVER       SUNNY     28  21  74 E5        30.27F WCI  23
HEBER CITY     SUNNY     19   9  63 CALM      30.20F
WEST JORDAN    MOSUNNY   28  25  89 NW5       30.25F WCI  22

$$

UTZ011>015-024>027-162200-

CENTRAL/NORTHEAST UTAH

CITY           SKY/WX    TMP DP  RH WIND       PRES   REMARKS
PROVO AIRPORT  SUNNY     29  21  72 W6        30.25F WCI  23
MOAB/CANYONLAN SUNNY     44  28  53 N6        30.03F
DELTA          SUNNY     32  21  64 CALM      30.21F
PRICE          SUNNY     39  15  37 N14       30.04F WCI  31
RICHFIELD      CLOUDY    32  21  64 N5        30.18F WCI  27
ROOSEVELT      SUNNY     32  21  64 E5        30.17F WCI  27
VERNAL         CLOUDY    27  21  78 E5        30.16F WCI  22

$$

UTZ013>016-019>022-027-162200-

SOUTHERN UTAH

CITY           SKY/WX    TMP DP  RH WIND       PRES   REMARKS
BRYCE CANYON   SUNNY     28  17  63 N9        30.05F WCI  19
CEDAR CITY     PTSUNNY   31  19  61 N10       30.13F WCI  22
MILFORD        PTSUNNY   31  22  69 N15       30.18F WCI  20
ST GEORGE      CLEAR     46  21  36 CALM      30.11F
HANKSVILLE     SUNNY     45  23  42 MISG      30.07F
KANAB          SUNNY     46  28  49 S5        30.07F
BLANDING       PTSUNNY   44  27  52 S5        30.04F

$$

REGIONAL REPORTS     COLORADO/ARIZONA

CITY           SKY/WX    TMP DP  RH WIND       PRES   REMARKS
CRAIG, CO      CLOUDY    20  12  71 W6        30.13F WCI  12
GRAND JUNCTION CLOUDY    41  16  36 VRB3      30.04F
RIFLE, CO      CLOUDY    35  20  54 VRB6      30.05F WCI  30
MONTROSE, CO   CLOUDY    34  22  61 CALM      30.06F
CORTEZ, CO     FLURRIES  38  30  73 W6        29.97S WCI  33
COLORADO CITY    N/A     45  23  42 NW9       30.07F
PAGE, AZ       MOSUNNY   47  24  40 CALM      30.02F
GRAND CANYON   CLOUDY    40  31  70 SW3       30.02F
KINGMAN, AZ    MOSUNNY   48  26  42 N10       30.04F
FLAGSTAFF, AZ  CLOUDY    39  27  62 CALM      30.00F

$$

REGIONAL REPORTS    NEVADA/IDAHO/WYOMING

CITY           SKY/WX    TMP DP  RH WIND       PRES   REMARKS
LAS VEGAS, NV  MOSUNNY   54  17  23 N8G17     30.08F
ELY, NY        MOSUNNY   22  15  75 NW5       30.19F WCI  16
ELKO, NV       CLOUDY    23  17  78 W3        30.28F
POCATELLO, ID  CLOUDY     8   2  76 CALM      30.32F
BURLEY, ID     SUNNY     19  12  74 NE3       30.30F
FORT BRIDGER,    N/A      2   1  91 S5        30.17F WCI  -7
EVANSTON, WY   CLOUDY     5   1  83 SW3       30.14F
ROCK SPRINGS,  CLOUDY     5  -2  72 CALM      30.14F

$$



USA.gov is the U.S. government's official web portal to all federal, state and local government web resources and services.